TimeCDT,TemperatureF,Dew PointF,Humidity,Sea Level PressureIn,VisibilityMPH,Wind Direction,Wind SpeedMPH,Gust SpeedMPH,PrecipitationIn,Events,Conditions,WindDirDegrees,DateUTC
12:15 AM,57.6,56.8,97,30.05,7.0,Calm,Calm,-,N/A,,Clear,0,2013-10-09 05:15:00
12:35 AM,57.2,56.3,97,30.05,2.0,Calm,Calm,-,N/A,,Clear,0,2013-10-09 05:35:00
12:55 AM,57.2,56.5,97,30.05,10.0,Calm,Calm,-,N/A,,Clear,0,2013-10-09 05:55:00
1:15 AM,55.6,54.9,97,30.05,2.5,Calm,Calm,-,N/A,,Clear,0,2013-10-09 06:15:00
1:35 AM,55.8,55.2,98,30.04,2.0,Calm,Calm,-,N/A,,Clear,0,2013-10-09 06:35:00
1:55 AM,56.3,55.6,97,30.05,7.0,Calm,Calm,-,N/A,,Clear,0,2013-10-09 06:55:00
2:15 AM,56.3,55.6,97,30.05,4.0,Calm,Calm,-,N/A,,Clear,0,2013-10-09 07:15:00
2:35 AM,55.2,54.7,98,30.05,7.0,Calm,Calm,-,N/A,,Clear,0,2013-10-09 07:35:00
2:55 AM,55.4,54.9,98,30.05,3.0,Calm,Calm,-,N/A,,Clear,0,2013-10-09 07:55:00
3:15 AM,54.5,53.8,97,30.04,7.0,Calm,Calm,-,N/A,,Clear,0,2013-10-09 08:15:00
3:35 AM,54.9,54.3,98,30.05,3.0,Calm,Calm,-,N/A,,Clear,0,2013-10-09 08:35:00
3:55 AM,54.7,54.3,99,30.04,5.0,Calm,Calm,-,N/A,,Clear,0,2013-10-09 08:55:00
4:15 AM,54.7,54.1,98,30.04,4.0,Calm,Calm,-,N/A,,Clear,0,2013-10-09 09:15:00
4:35 AM,54.7,54.1,98,30.04,4.0,Calm,Calm,-,N/A,,Clear,0,2013-10-09 09:35:00
4:55 AM,54.1,53.6,98,30.05,7.0,Calm,Calm,-,N/A,,Clear,0,2013-10-09 09:55:00
5:15 AM,54.9,54.3,98,30.05,7.0,Calm,Calm,-,N/A,,Clear,0,2013-10-09 10:15:00
5:35 AM,54.7,54.1,98,30.05,7.0,Calm,Calm,-,N/A,,Clear,0,2013-10-09 10:35:00
5:55 AM,54.9,54.5,99,30.05,3.0,Calm,Calm,-,N/A,,Clear,0,2013-10-09 10:55:00
6:15 AM,54.5,54.0,98,30.05,7.0,Calm,Calm,-,N/A,,Clear,0,2013-10-09 11:15:00
6:35 AM,54.7,54.1,98,30.06,10.0,Calm,Calm,-,N/A,,Clear,0,2013-10-09 11:35:00
6:55 AM,54.0,53.6,99,30.06,7.0,Calm,Calm,-,N/A,,Clear,0,2013-10-09 11:55:00
7:15 AM,54.7,54.1,98,30.06,10.0,Calm,Calm,-,N/A,,Clear,0,2013-10-09 12:15:00
7:35 AM,54.3,53.8,98,30.06,10.0,Calm,Calm,-,N/A,,Clear,0,2013-10-09 12:35:00
7:55 AM,55.0,54.5,98,30.07,10.0,Calm,Calm,-,N/A,,Clear,0,2013-10-09 12:55:00
8:15 AM,56.5,56.1,99,30.07,10.0,Calm,Calm,-,N/A,,Clear,0,2013-10-09 13:15:00
8:35 AM,59.0,58.5,98,30.08,10.0,Calm,Calm,-,N/A,,Clear,0,2013-10-09 13:35:00
8:55 AM,61.5,59.5,93,30.08,10.0,NNE,3.5,-,N/A,,Clear,30,2013-10-09 13:55:00
9:15 AM,64.6,60.4,86,30.09,10.0,Calm,Calm,-,N/A,,Clear,0,2013-10-09 14:15:00
9:35 AM,67.1,59.9,78,30.09,10.0,NNE,3.5,-,N/A,,Clear,30,2013-10-09 14:35:00
9:55 AM,69.1,59.9,72,30.10,10.0,Calm,Calm,-,N/A,,Clear,0,2013-10-09 14:55:00
10:15 AM,71.2,59.2,66,30.11,10.0,NE,3.5,-,N/A,,Clear,40,2013-10-09 15:15:00
10:35 AM,73.2,58.6,60,30.11,10.0,NNE,3.5,-,N/A,,Clear,20,2013-10-09 15:35:00
10:55 AM,74.3,57.7,56,30.11,10.0,NNE,3.5,-,N/A,,Clear,20,2013-10-09 15:55:00
11:15 AM,75.2,56.3,52,30.11,10.0,Calm,Calm,-,N/A,,Clear,0,2013-10-09 16:15:00
11:35 AM,74.8,57.0,54,30.11,10.0,North,3.5,-,N/A,,Clear,360,2013-10-09 16:35:00
11:55 AM,75.6,57.4,53,30.11,10.0,Calm,Calm,-,N/A,,Clear,0,2013-10-09 16:55:00
12:15 PM,75.7,57.7,53,30.11,10.0,NNW,3.5,-,N/A,,Clear,330,2013-10-09 17:15:00
12:35 PM,77.4,58.1,51,30.11,10.0,Calm,Calm,-,N/A,,Clear,0,2013-10-09 17:35:00
12:55 PM,77.7,58.3,51,30.10,10.0,South,3.5,-,N/A,,Clear,190,2013-10-09 17:55:00
1:15 PM,78.3,57.7,49,30.09,10.0,Calm,Calm,-,N/A,,Clear,0,2013-10-09 18:15:00
1:35 PM,78.3,57.2,48,30.08,10.0,NNE,4.6,-,N/A,,Clear,20,2013-10-09 18:35:00
1:55 PM,78.6,57.0,47,30.07,10.0,Calm,Calm,-,N/A,,Clear,0,2013-10-09 18:55:00
2:15 PM,78.3,56.8,48,30.06,10.0,Calm,Calm,-,N/A,,Clear,0,2013-10-09 19:15:00
2:35 PM,79.3,57.4,47,30.05,10.0,Calm,Calm,-,N/A,,Clear,0,2013-10-09 19:35:00
2:55 PM,79.5,58.6,49,30.05,10.0,South,4.6,-,N/A,,Clear,190,2013-10-09 19:55:00
3:15 PM,79.5,58.8,49,30.05,10.0,SE,3.5,-,N/A,,Clear,130,2013-10-09 20:15:00
3:35 PM,80.4,58.5,47,30.04,10.0,Calm,Calm,-,N/A,,Clear,0,2013-10-09 20:35:00
3:55 PM,80.6,59.5,49,30.04,10.0,Calm,Calm,-,N/A,,Clear,0,2013-10-09 20:55:00
4:15 PM,80.6,59.0,48,30.04,10.0,Calm,Calm,-,N/A,,Clear,0,2013-10-09 21:15:00
4:35 PM,81.0,58.5,46,30.03,10.0,Calm,Calm,-,N/A,,Clear,0,2013-10-09 21:35:00
4:55 PM,80.6,58.6,47,30.03,10.0,Calm,Calm,-,N/A,,Clear,0,2013-10-09 21:55:00
5:15 PM,79.7,57.0,46,30.03,10.0,SSE,3.5,-,N/A,,Clear,150,2013-10-09 22:15:00
5:35 PM,79.7,57.4,46,30.02,10.0,SSE,3.5,-,N/A,,Clear,160,2013-10-09 22:35:00
5:55 PM,79.0,56.1,45,30.03,10.0,Calm,Calm,-,N/A,,Clear,0,2013-10-09 22:55:00
6:15 PM,78.1,57.4,49,30.03,10.0,Calm,Calm,-,N/A,,Clear,0,2013-10-09 23:15:00
6:35 PM,73.4,60.1,63,30.03,10.0,Calm,Calm,-,N/A,,Clear,0,2013-10-09 23:35:00
6:55 PM,69.8,61.7,75,30.03,10.0,Calm,Calm,-,N/A,,Clear,0,2013-10-09 23:55:00
7:15 PM,68.2,61.0,78,30.03,10.0,Calm,Calm,-,N/A,,Clear,0,2013-10-10 00:15:00
7:35 PM,66.4,61.2,83,30.03,10.0,Calm,Calm,-,N/A,,Clear,0,2013-10-10 00:35:00
7:55 PM,67.5,60.3,78,30.04,10.0,ESE,3.5,-,N/A,,Clear,120,2013-10-10 00:55:00
8:15 PM,66.2,60.8,83,30.04,10.0,Calm,Calm,-,N/A,,Clear,0,2013-10-10 01:15:00
8:35 PM,64.0,60.8,89,30.04,10.0,Calm,Calm,-,N/A,,Clear,0,2013-10-10 01:35:00
8:55 PM,64.4,61.9,92,30.05,10.0,Calm,Calm,-,N/A,,Clear,0,2013-10-10 01:55:00
9:15 PM,63.7,62.1,94,30.05,10.0,Calm,Calm,-,N/A,,Clear,0,2013-10-10 02:15:00
9:35 PM,63.0,61.7,96,30.05,10.0,Calm,Calm,-,N/A,,Clear,0,2013-10-10 02:35:00
9:55 PM,62.6,61.3,96,30.05,10.0,Calm,Calm,-,N/A,,Clear,0,2013-10-10 02:55:00
10:15 PM,62.4,61.5,97,30.05,7.0,Calm,Calm,-,N/A,,Clear,0,2013-10-10 03:15:00
10:35 PM,61.2,60.3,97,30.06,2.5,Calm,Calm,-,N/A,,Clear,0,2013-10-10 03:35:00
10:55 PM,62.1,61.3,97,30.06,5.0,Calm,Calm,-,N/A,,Clear,0,2013-10-10 03:55:00
11:15 PM,61.9,61.2,97,30.06,7.0,Calm,Calm,-,N/A,,Clear,0,2013-10-10 04:15:00
11:35 PM,61.0,60.3,97,30.06,5.0,Calm,Calm,-,N/A,,Clear,0,2013-10-10 04:35:00
11:55 PM,60.8,60.1,97,30.06,5.0,Calm,Calm,-,N/A,,Clear,0,2013-10-10 04:55:00